IRIDIUM 72 [P]

Last updated on May 14, 2018, 12:19 a.m. UTC

1 25343U 98032B   18133.88891080  .18300456 -19437-5  35149-3 0  9999
2 25343  86.3589  84.1089 0049325 121.6779 238.8899 16.40946683 46693

Satellite is not in orbit.